Location: Noulens
(43.8099°N, 0.1664°E)
Time: 18:04:04
(UTC+00:00)

ERS-2 - Pass Details

Date: 07 June 2020
Orbit: 493 x 499 km, 98.5° (Epoch: 12 July)

Event Time Altitude Azimuth Distance (km) Brightness Sun altitude
Exits shadow 02:49:36 - 157° (SSE) 2,581 5.5 -12.7°
Rises 02:49:37 0° 157° (SSE) 2,578 5.5 -12.7°
Reaches altitude 10° 02:51:41 10° 154° (SSE) 1,700 4.6 -12.5°
Maximum altitude 02:55:18 63° 73° (ENE) 562 2.6 -12.0°
Drops below altitude 10° 02:58:57 10° 353° (N) 1,713 5.4 -11.6°
Sets 03:01:02 0° 350° (N) 2,601 6.3 -11.3°
